IGO6283 VOBL-VABB

Flight info

Callsign IGO6283
Flight time 1h 17m
Altitude 36000
Route VAGPU Q8 AGELA
Aircraft A320/M-SDE3FGHIRWY/LB1

Departure

Time 2026-04-27 14:12
Airport Kempegowda International Airport Bengaluru (VOBL)

Arrival

Time 2026-04-27 15:29
Airport Chhatrapati Shivaji Maharaj International Airport (VABB)
Time Latitude Longitude Altitude Speed Heading
2026-04-27 13:47 13.20174 77.70838 2941 ft 0 kts 180°
2026-04-27 13:58 13.20192 77.70839 2968 ft 4 kts 180°
2026-04-27 13:59 13.20219 77.70839 2969 ft 3 kts 180°
2026-04-27 13:59 13.20240 77.70839 2968 ft 4 kts 180°
2026-04-27 13:59 13.20258 77.70840 2969 ft 4 kts 241°
2026-04-27 13:59 13.20262 77.70863 2969 ft 4 kts 270°
2026-04-27 14:00 13.20262 77.70885 2968 ft 0 kts 270°
2026-04-27 14:02 13.20262 77.70882 2968 ft 1 kts 270°
2026-04-27 14:02 13.20263 77.70866 2969 ft 3 kts 271°
2026-04-27 14:02 13.20263 77.70837 2968 ft 5 kts 272°
2026-04-27 14:03 13.20263 77.70795 2968 ft 7 kts 269°
2026-04-27 14:03 13.20263 77.70743 2968 ft 8 kts 270°
2026-04-27 14:03 13.20264 77.70679 2968 ft 10 kts 270°
2026-04-27 14:03 13.20264 77.70604 2968 ft 11 kts 270°
2026-04-27 14:04 13.20265 77.70519 2969 ft 13 kts 270°
2026-04-27 14:04 13.20270 77.70422 2969 ft 14 kts 287°
2026-04-27 14:04 13.20359 77.70392 2969 ft 15 kts
2026-04-27 14:04 13.20468 77.70394 2970 ft 16 kts
2026-04-27 14:05 13.20532 77.70321 2971 ft 16 kts 269°
2026-04-27 14:05 13.20533 77.70205 2973 ft 17 kts 271°
2026-04-27 14:05 13.20533 77.70082 2972 ft 18 kts 263°
2026-04-27 14:05 13.20534 77.69946 2971 ft 20 kts 270°
2026-04-27 14:06 13.20535 77.69796 2971 ft 22 kts 271°
2026-04-27 14:06 13.20536 77.69637 2970 ft 24 kts 270°
2026-04-27 14:06 13.20538 77.69457 2967 ft 24 kts 270°
2026-04-27 14:06 13.20539 77.69305 2967 ft 21 kts 270°
2026-04-27 14:07 13.20553 77.69211 2968 ft 7 kts 334°
2026-04-27 14:07 13.20572 77.69210 2968 ft 1 kts 359°
2026-04-27 14:07 13.20580 77.69210 2968 ft 2 kts 359°
2026-04-27 14:07 13.20589 77.69210 2968 ft 0 kts 360°
2026-04-27 14:08 13.20592 77.69210 2968 ft 1 kts 360°
2026-04-27 14:08 13.20603 77.69210 2969 ft 2 kts 360°
2026-04-27 14:09 13.20621 77.69210 2969 ft 3 kts 360°
2026-04-27 14:09 13.20647 77.69210 2969 ft 4 kts
2026-04-27 14:09 13.20683 77.69210 2969 ft 6 kts
2026-04-27 14:09 13.20709 77.69238 2969 ft 7 kts 83°
2026-04-27 14:10 13.20710 77.69246 2969 ft 2 kts 86°
2026-04-27 14:10 13.20711 77.69267 2969 ft 4 kts 87°
2026-04-27 14:10 13.20712 77.69303 2969 ft 6 kts 88°
2026-04-27 14:10 13.20714 77.69356 2969 ft 9 kts 89°
2026-04-27 14:11 13.20706 77.69519 2969 ft 51 kts 91°
2026-04-27 14:11 13.20704 77.70114 2969 ft 113 kts 90°
2026-04-27 14:11 13.20691 77.71088 2969 ft 158 kts 90°
2026-04-27 14:11 13.20695 77.72301 3351 ft 171 kts 86°
2026-04-27 14:12 13.21098 77.73438 4062 ft 173 kts 60°
2026-04-27 14:12 13.21830 77.74479 4348 ft 192 kts 59°
2026-04-27 14:12 13.22571 77.75691 4476 ft 215 kts 62°
2026-04-27 14:12 13.23365 77.77091 4662 ft 239 kts 63°
2026-04-27 14:13 13.24226 77.78649 4992 ft 261 kts 63°
2026-04-27 14:13 13.25131 77.80304 5641 ft 269 kts 63°
2026-04-27 14:13 13.26085 77.81979 6390 ft 275 kts 55°
2026-04-27 14:13 13.27581 77.83223 7061 ft 285 kts 23°
2026-04-27 14:14 13.29551 77.83547 7789 ft 291 kts
2026-04-27 14:14 13.31575 77.83511 8601 ft 293 kts 352°
2026-04-27 14:14 13.33514 77.82853 9360 ft 297 kts 332°
2026-04-27 14:14 13.35279 77.81796 10092 ft 300 kts 330°
2026-04-27 14:15 13.37151 77.80683 10337 ft 322 kts 331°
2026-04-27 14:15 13.39147 77.79514 10712 ft 335 kts 332°
2026-04-27 14:15 13.41190 77.78324 10876 ft 338 kts 332°
2026-04-27 14:15 13.43238 77.77136 10929 ft 340 kts 331°
2026-04-27 14:16 13.45310 77.75933 11540 ft 342 kts 332°
2026-04-27 14:16 13.47388 77.74724 12256 ft 344 kts 331°
2026-04-27 14:16 13.49473 77.73507 12938 ft 346 kts 331°
2026-04-27 14:16 13.51573 77.72281 13613 ft 349 kts 331°
2026-04-27 14:17 13.53664 77.71061 14180 ft 352 kts 331°
2026-04-27 14:17 13.55808 77.69811 14716 ft 357 kts 331°
2026-04-27 14:17 13.57981 77.68545 15220 ft 361 kts 331°
2026-04-27 14:17 13.60181 77.67261 15752 ft 365 kts 331°
2026-04-27 14:18 13.62398 77.65962 16306 ft 368 kts 331°
2026-04-27 14:18 13.64633 77.64653 16849 ft 371 kts 331°
2026-04-27 14:18 13.66889 77.63333 17382 ft 375 kts 330°
2026-04-27 14:18 13.69166 77.62000 17913 ft 378 kts 331°
2026-04-27 14:19 13.71435 77.60673 18388 ft 382 kts 330°
2026-04-27 14:19 13.73751 77.59318 18834 ft 385 kts 330°
2026-04-27 14:19 13.76084 77.57953 19276 ft 387 kts 331°
2026-04-27 14:19 13.78435 77.56576 19743 ft 390 kts 331°
2026-04-27 14:20 13.80800 77.55190 20190 ft 393 kts 331°
2026-04-27 14:20 13.83188 77.53792 20632 ft 396 kts 331°
2026-04-27 14:20 13.85592 77.52385 21070 ft 399 kts 331°
2026-04-27 14:20 13.88014 77.50965 21492 ft 402 kts 331°
2026-04-27 14:21 13.90421 77.49554 21896 ft 405 kts 331°
2026-04-27 14:21 13.92883 77.48112 22334 ft 408 kts 330°
2026-04-27 14:21 13.95356 77.46664 22757 ft 411 kts 331°
2026-04-27 14:21 13.97846 77.45207 23174 ft 413 kts 331°
2026-04-27 14:22 14.00352 77.43741 23556 ft 416 kts 331°
2026-04-27 14:22 14.02872 77.42265 23891 ft 418 kts 330°
2026-04-27 14:22 14.05401 77.40782 24261 ft 419 kts 330°
2026-04-27 14:22 14.07941 77.39292 24639 ft 420 kts 330°
2026-04-27 14:23 14.10448 77.37819 25019 ft 421 kts 330°
2026-04-27 14:23 14.12999 77.36318 25375 ft 423 kts 330°
2026-04-27 14:23 14.15559 77.34810 25746 ft 425 kts 329°
2026-04-27 14:23 14.18130 77.33295 26083 ft 427 kts 329°
2026-04-27 14:24 14.20721 77.31772 26429 ft 429 kts 329°
2026-04-27 14:24 14.23320 77.30248 26776 ft 431 kts 329°
2026-04-27 14:24 14.25927 77.28720 27146 ft 432 kts 329°
2026-04-27 14:24 14.28541 77.27187 27502 ft 433 kts 329°
2026-04-27 14:25 14.31166 77.25643 27853 ft 435 kts 328°
2026-04-27 14:25 14.33762 77.24114 28192 ft 437 kts 328°
2026-04-27 14:25 14.36404 77.22559 28573 ft 438 kts 328°
2026-04-27 14:25 14.39057 77.20996 28951 ft 440 kts 328°
2026-04-27 14:26 14.41720 77.19426 29330 ft 442 kts 328°
2026-04-27 14:26 14.44400 77.17846 29696 ft 444 kts 328°
2026-04-27 14:26 14.47087 77.16262 30040 ft 446 kts 328°
2026-04-27 14:26 14.49787 77.14669 30332 ft 448 kts 328°
2026-04-27 14:27 14.52505 77.13063 30612 ft 451 kts 327°
2026-04-27 14:27 14.55197 77.11472 30887 ft 453 kts 327°
2026-04-27 14:27 14.57942 77.09853 31165 ft 456 kts 328°
2026-04-27 14:27 14.60839 77.08481 31492 ft 461 kts 336°
2026-04-27 14:28 14.63863 77.07381 31897 ft 461 kts 337°
2026-04-27 14:28 14.66893 77.06283 32287 ft 461 kts 337°
2026-04-27 14:28 14.69919 77.05183 32678 ft 461 kts 337°
2026-04-27 14:28 14.72940 77.04082 33063 ft 461 kts 336°
2026-04-27 14:29 14.75972 77.02976 33461 ft 462 kts 336°
2026-04-27 14:29 14.78999 77.01870 33840 ft 462 kts 336°
2026-04-27 14:29 14.81987 77.00776 34175 ft 462 kts 336°
2026-04-27 14:29 14.85013 76.99669 34513 ft 461 kts 336°
2026-04-27 14:30 14.88041 76.98560 34864 ft 461 kts 336°
2026-04-27 14:30 14.91061 76.97455 35208 ft 460 kts 336°
2026-04-27 14:30 14.94078 76.96352 35544 ft 460 kts 336°
2026-04-27 14:30 14.97095 76.95247 35776 ft 460 kts 336°
2026-04-27 14:31 15.00108 76.94143 35820 ft 458 kts 336°
2026-04-27 14:31 15.06103 76.91948 35829 ft 456 kts 336°
2026-04-27 14:32 15.12046 76.89768 35815 ft 456 kts 336°
2026-04-27 14:32 15.18026 76.87569 35816 ft 456 kts 336°
2026-04-27 14:33 15.24010 76.85373 35816 ft 457 kts 335°
2026-04-27 14:33 15.29983 76.83184 35810 ft 458 kts 335°
2026-04-27 14:34 15.35995 76.80978 35811 ft 459 kts 335°
2026-04-27 14:34 15.42007 76.78766 35803 ft 459 kts 335°
2026-04-27 14:35 15.48021 76.76554 35801 ft 458 kts 335°
2026-04-27 14:35 15.54033 76.74340 35796 ft 458 kts 335°
2026-04-27 14:36 15.59997 76.72142 35800 ft 458 kts 334°
2026-04-27 14:36 15.65951 76.69837 35809 ft 452 kts 328°
2026-04-27 14:37 15.70998 76.66195 35806 ft 436 kts 309°
2026-04-27 14:37 15.74825 76.61419 35809 ft 429 kts 302°
2026-04-27 14:38 15.78476 76.56565 35809 ft 430 kts 302°
2026-04-27 14:38 15.82156 76.51671 35812 ft 430 kts 302°
2026-04-27 14:39 15.85838 76.46781 35816 ft 430 kts 302°
2026-04-27 14:39 15.89503 76.41919 35815 ft 430 kts 302°
2026-04-27 14:40 15.93182 76.37023 35827 ft 430 kts 302°
2026-04-27 14:40 15.96854 76.32126 35833 ft 429 kts 302°
2026-04-27 14:41 16.00527 76.27241 35834 ft 428 kts 302°
2026-04-27 14:41 16.04187 76.22363 35833 ft 428 kts 302°
2026-04-27 14:42 16.07816 76.17511 35837 ft 427 kts 302°
2026-04-27 14:42 16.11463 76.12632 35832 ft 427 kts 301°
2026-04-27 14:43 16.15114 76.07750 35826 ft 428 kts 301°
2026-04-27 14:43 16.18767 76.02866 35824 ft 428 kts 302°
2026-04-27 14:44 16.22404 75.98007 35823 ft 428 kts 302°
2026-04-27 14:44 16.26061 75.93113 35835 ft 428 kts 301°
2026-04-27 14:45 16.29704 75.88220 35836 ft 427 kts 301°
2026-04-27 14:45 16.33347 75.83335 35836 ft 427 kts 301°
2026-04-27 14:46 16.36967 75.78482 35837 ft 427 kts 301°
2026-04-27 14:46 16.40606 75.73595 35835 ft 427 kts 301°
2026-04-27 14:47 16.44249 75.68701 35831 ft 428 kts 301°
2026-04-27 14:47 16.47892 75.63797 35834 ft 428 kts 301°
2026-04-27 14:48 16.51536 75.58895 35835 ft 428 kts 301°
2026-04-27 14:48 16.56977 75.51570 35850 ft 427 kts 301°
2026-04-27 14:49 16.60605 75.46673 35859 ft 426 kts 301°
2026-04-27 14:49 16.64259 75.41801 35854 ft 426 kts 302°
2026-04-27 14:50 16.67922 75.36995 35852 ft 426 kts 302°
2026-04-27 14:50 16.71606 75.32148 35858 ft 426 kts 302°
2026-04-27 14:51 16.75277 75.27296 35854 ft 426 kts 302°
2026-04-27 14:51 16.78321 75.23261 35854 ft 426 kts 302°
2026-04-27 14:52 16.82583 75.17616 35859 ft 426 kts 302°
2026-04-27 14:52 16.86252 75.12765 35868 ft 426 kts 302°
2026-04-27 14:53 16.89914 75.07912 35867 ft 425 kts 302°
2026-04-27 14:53 16.93570 75.03059 35869 ft 425 kts 302°
2026-04-27 14:54 16.97202 74.98238 35869 ft 425 kts 302°
2026-04-27 14:54 17.00854 74.93385 35867 ft 425 kts 302°
2026-04-27 14:55 17.04504 74.88533 35864 ft 425 kts 302°
2026-04-27 14:55 17.08150 74.83679 35863 ft 425 kts 302°
2026-04-27 14:56 17.11800 74.78821 35862 ft 425 kts 302°
2026-04-27 14:56 17.15418 74.73997 35862 ft 424 kts 302°
2026-04-27 14:57 17.19060 74.69143 35868 ft 424 kts 302°
2026-04-27 14:57 17.22703 74.64293 35868 ft 423 kts 302°
2026-04-27 14:58 17.26330 74.59447 35872 ft 423 kts 301°
2026-04-27 14:58 17.29948 74.54595 35866 ft 423 kts 301°
2026-04-27 14:59 17.33551 74.49784 35870 ft 423 kts 302°
2026-04-27 14:59 17.37172 74.44941 35868 ft 423 kts 301°
2026-04-27 15:00 17.40798 74.40092 35862 ft 423 kts 301°
2026-04-27 15:00 17.44415 74.35241 35869 ft 423 kts 301°
2026-04-27 15:01 17.48009 74.30416 35883 ft 423 kts 301°
2026-04-27 15:01 17.51627 74.25569 35883 ft 422 kts 301°
2026-04-27 15:02 17.55244 74.20715 35864 ft 423 kts 301°
2026-04-27 15:02 17.58871 74.15834 35855 ft 425 kts 301°
2026-04-27 15:03 17.62480 74.10974 35851 ft 426 kts 301°
2026-04-27 15:03 17.66129 74.06067 35864 ft 427 kts 301°
2026-04-27 15:04 17.67955 74.03612 35522 ft 428 kts 301°
2026-04-27 15:04 17.69807 74.01111 34422 ft 440 kts 302°
2026-04-27 15:04 17.71689 73.98564 33667 ft 443 kts 302°
2026-04-27 15:04 17.73576 73.96019 33010 ft 441 kts 302°
2026-04-27 15:05 17.75455 73.93492 32443 ft 438 kts 302°
2026-04-27 15:05 17.77293 73.91023 31939 ft 433 kts 302°
2026-04-27 15:05 17.79139 73.88540 31420 ft 429 kts 302°
2026-04-27 15:05 17.80954 73.86097 30711 ft 420 kts 302°
2026-04-27 15:06 17.82734 73.83699 29810 ft 413 kts 302°
2026-04-27 15:06 17.84483 73.81340 28773 ft 406 kts 303°
2026-04-27 15:06 17.86207 73.79012 27700 ft 402 kts 303°
2026-04-27 15:06 17.87912 73.76703 26739 ft 397 kts 303°
2026-04-27 15:07 17.89595 73.74416 25846 ft 397 kts 303°
2026-04-27 15:07 17.91278 73.72130 25387 ft 394 kts 303°
2026-04-27 15:07 17.92923 73.69900 24971 ft 390 kts 304°
2026-04-27 15:07 17.94576 73.67659 24526 ft 387 kts 304°
2026-04-27 15:08 17.96221 73.65429 24091 ft 385 kts 304°
2026-04-27 15:08 17.97856 73.63211 23625 ft 383 kts 304°
2026-04-27 15:08 17.99487 73.61003 23127 ft 382 kts 305°
2026-04-27 15:08 18.01112 73.58802 22661 ft 379 kts 305°
2026-04-27 15:09 18.02718 73.56623 22193 ft 375 kts 305°
2026-04-27 15:09 18.04308 73.54464 21732 ft 372 kts 305°
2026-04-27 15:09 18.05885 73.52322 21276 ft 369 kts 305°
2026-04-27 15:09 18.07429 73.50227 20802 ft 366 kts 305°
2026-04-27 15:10 18.08984 73.48120 20355 ft 364 kts 306°
2026-04-27 15:10 18.10527 73.46027 20011 ft 358 kts 306°
2026-04-27 15:10 18.12026 73.43992 19853 ft 347 kts 306°
2026-04-27 15:10 18.13493 73.41996 19511 ft 344 kts 306°
2026-04-27 15:11 18.14979 73.40038 19124 ft 343 kts 311°
2026-04-27 15:11 18.16785 73.38400 18737 ft 344 kts 324°
2026-04-27 15:11 18.18898 73.37228 18348 ft 344 kts 335°
2026-04-27 15:11 18.21074 73.36263 17927 ft 344 kts 335°
2026-04-27 15:12 18.23271 73.35286 17508 ft 342 kts 336°
2026-04-27 15:12 18.25455 73.34314 17125 ft 340 kts 336°
2026-04-27 15:12 18.27627 73.33347 16733 ft 338 kts 336°
2026-04-27 15:12 18.29789 73.32380 16349 ft 336 kts 336°
2026-04-27 15:13 18.31934 73.31419 15980 ft 334 kts 336°
2026-04-27 15:13 18.34066 73.30462 15603 ft 331 kts 336°
2026-04-27 15:13 18.36171 73.29521 14969 ft 328 kts 336°
2026-04-27 15:13 18.38264 73.28586 14333 ft 325 kts 336°
2026-04-27 15:14 18.40335 73.27659 13717 ft 322 kts 336°
2026-04-27 15:14 18.42359 73.26754 13081 ft 318 kts 336°
2026-04-27 15:14 18.44386 73.25846 12636 ft 317 kts 336°
2026-04-27 15:14 18.46417 73.24933 12264 ft 316 kts 336°
2026-04-27 15:15 18.48428 73.24030 11885 ft 315 kts 336°
2026-04-27 15:15 18.50427 73.23133 11535 ft 313 kts 336°
2026-04-27 15:15 18.52418 73.22240 11253 ft 308 kts 336°
2026-04-27 15:15 18.54386 73.21358 10881 ft 306 kts 336°
2026-04-27 15:16 18.55680 73.20778 10488 ft 304 kts 336°
2026-04-27 15:16 18.57605 73.19915 10007 ft 297 kts 336°
2026-04-27 15:16 18.60073 73.18806 9486 ft 289 kts 336°
2026-04-27 15:16 18.61928 73.17973 9109 ft 290 kts 336°
2026-04-27 15:17 18.63758 73.17151 8978 ft 282 kts 336°
2026-04-27 15:17 18.64941 73.16620 8894 ft 276 kts 336°
2026-04-27 15:17 18.66730 73.15978 8713 ft 270 kts 349°
2026-04-27 15:17 18.68577 73.15822 8623 ft 265 kts 358°
2026-04-27 15:18 18.70422 73.15779 8538 ft 265 kts 358°
2026-04-27 15:18 18.72262 73.15731 8411 ft 264 kts 358°
2026-04-27 15:18 18.74683 73.15667 8235 ft 262 kts 358°
2026-04-27 15:18 18.76508 73.15619 8099 ft 267 kts 358°
2026-04-27 15:19 18.77794 73.15586 8002 ft 278 kts 358°
2026-04-27 15:19 18.79711 73.15537 7861 ft 277 kts 358°
2026-04-27 15:19 18.81612 73.15488 7714 ft 269 kts 358°
2026-04-27 15:19 18.83455 73.15441 7577 ft 262 kts 358°
2026-04-27 15:20 18.85254 73.15395 7428 ft 255 kts 358°
2026-04-27 15:20 18.87003 73.15350 7290 ft 248 kts 358°
2026-04-27 15:20 18.88702 73.15306 7132 ft 241 kts 358°
2026-04-27 15:20 18.90351 73.15265 7007 ft 233 kts 358°
2026-04-27 15:21 18.91959 73.15223 6794 ft 229 kts 358°
2026-04-27 15:21 18.93545 73.15180 6557 ft 227 kts 358°
2026-04-27 15:21 18.95095 73.15137 6305 ft 225 kts 358°
2026-04-27 15:21 18.96655 73.15092 6036 ft 223 kts 358°
2026-04-27 15:22 18.98203 73.15048 5764 ft 222 kts 358°
2026-04-27 15:22 18.99741 73.15004 5492 ft 220 kts 358°
2026-04-27 15:22 19.01267 73.14961 5211 ft 219 kts 357°
2026-04-27 15:22 19.02790 73.14927 4903 ft 219 kts 358°
2026-04-27 15:23 19.04257 73.14595 4620 ft 217 kts 331°
2026-04-27 15:23 19.05475 73.13659 4327 ft 217 kts 321°
2026-04-27 15:23 19.06620 73.12623 4076 ft 214 kts 320°
2026-04-27 15:23 19.07705 73.11624 3950 ft 205 kts 320°
2026-04-27 15:24 19.08629 73.10526 3854 ft 196 kts 302°
2026-04-27 15:24 19.09107 73.09186 3741 ft 196 kts 282°
2026-04-27 15:24 19.09150 73.07739 3528 ft 197 kts 272°
2026-04-27 15:24 19.09130 73.06292 3294 ft 197 kts 272°
2026-04-27 15:25 19.09111 73.04844 3051 ft 197 kts 272°
2026-04-27 15:25 19.09093 73.03395 2803 ft 197 kts 272°
2026-04-27 15:25 19.09074 73.01968 2562 ft 197 kts 271°
2026-04-27 15:25 19.09055 73.00523 2311 ft 196 kts 270°
2026-04-27 15:26 19.09036 72.99081 2060 ft 195 kts 270°
2026-04-27 15:26 19.09018 72.97659 1835 ft 191 kts 269°
2026-04-27 15:26 19.09000 72.96294 1578 ft 179 kts 268°
2026-04-27 15:26 19.08983 72.95028 1366 ft 164 kts 268°
2026-04-27 15:27 19.08968 72.93885 1159 ft 148 kts 270°
2026-04-27 15:27 19.08954 72.92839 969 ft 138 kts 269°
2026-04-27 15:27 19.08940 72.91825 810 ft 136 kts 269°
2026-04-27 15:27 19.08927 72.90837 659 ft 136 kts 270°
2026-04-27 15:28 19.08916 72.89848 513 ft 134 kts 270°
2026-04-27 15:28 19.08907 72.88860 313 ft 134 kts 267°
2026-04-27 15:28 19.08887 72.87884 160 ft 133 kts 268°
2026-04-27 15:28 19.08875 72.86910 62 ft 128 kts 268°
2026-04-27 15:29 19.08859 72.86088 47 ft 90 kts 270°
2026-04-27 15:29 19.08854 72.85609 49 ft 40 kts 269°
2026-04-27 15:29 19.08855 72.85477 50 ft 6 kts 274°
2026-04-27 15:29 19.08866 72.85425 51 ft 8 kts 286°
2026-04-27 15:30 19.08890 72.85360 51 ft 11 kts 297°
2026-04-27 15:30 19.08931 72.85278 51 ft 15 kts 298°
2026-04-27 15:30 19.08988 72.85171 47 ft 19 kts 301°
2026-04-27 15:30 19.09082 72.85141 49 ft 10 kts 48°
2026-04-27 15:31 19.09089 72.85207 49 ft 10 kts 88°
2026-04-27 15:31 19.09090 72.85294 49 ft 13 kts 90°
2026-04-27 15:31 19.09091 72.85401 49 ft 16 kts 89°
2026-04-27 15:31 19.09092 72.85504 49 ft 4 kts 89°
2026-04-27 15:32 19.09109 72.85527 48 ft 5 kts 15°
2026-04-27 15:32 19.09151 72.85525 48 ft 4 kts
2026-04-27 15:32 19.09159 72.85525 49 ft 0 kts
2026-04-27 15:35 19.09160 72.85525 49 ft 0 kts